[[{"header":{"parameterUnit":"m.s-1","parameterCategory":1,"la1":30.2991,"la2":30.254,"lo1":-89.0895,"lo2":-89.0444,"dy":0.0017,"dx":0.0017,"nx":28,"ny":28,"refTime":"2024-08-11T03:00:00:Z","depth":0,"parameterNumber":2,"parameterNumberName":"U-component_of_WINDS"},"data":[0,0,0,0,0,0,0,0,0,0,0,0,0,0,0,0,0,0,0,0,0,0,0,0,0,0,0,0,0,0,0,0,0,0,0,0,0,0,0,0,0,0,0,0,0,0,0,0,0,0,0,0,0,0,0,0,0,0,2.7653,2.7655,0,2.7781,2.7783,2.7784,2.7749,2.7747,2.7744,2.7742,2.7875,2.7881,2.7887,0,0,0,0,0,0,0,0,0,0,0,0,0,2.7378,2.7383,2.7653,2.7655,2.7656,2.7781,2.7783,2.7785,2.775,2.7747,2.7743,2.7741,2.7873,2.788,2.7887,0,0,0,0,0,0,0,0,0,0,0,0,0,2.7501,2.7385,2.7653,2.7654,2.7655,2.7781,2.7783,2.7785,2.775,2.7747,2.7743,2.7739,2.7871,2.7879,2.7888,2.8021,0,0,2.7915,2.7919,0,0,0,0,0,0,0,0,2.7494,2.7511,2.7652,2.7654,2.7656,2.7745,2.7735,2.7864,2.7751,2.7714,2.7742,2.7737,2.7835,2.7847,2.7879,2.8027,2.8033,2.7916,2.7922,2.7925,2.7928,0,0,0,0,0,0,0,2.7486,2.7505,2.7704,2.7654,2.7656,2.7648,2.7661,2.7759,2.7795,2.7717,2.7715,2.7731,2.7835,2.7871,2.7882,2.8035,2.7916,2.7924,2.7929,2.7933,2.8295,2.8299,0,0,0,0,0,0,2.7475,2.7498,2.77,2.7708,2.7564,2.7656,2.7671,2.7721,2.7794,2.7801,2.7734,2.7728,2.7857,2.7872,2.7887,2.8044,2.7925,2.7934,2.7939,2.8291,2.8296,2.8301,0,0,0,0,0,0,2.747,2.7494,2.7695,2.7603,2.7627,2.7665,2.7721,2.7725,2.776,2.7806,2.7812,2.7763,2.7855,2.7874,2.7987,2.8049,2.7938,2.7946,2.8286,2.8292,2.8298,2.8363,0,0,0,0,0,0,2.7462,2.7492,2.7543,2.7604,2.7632,2.7793,2.7725,2.773,2.7776,2.777,2.7836,2.7843,2.7853,2.7974,2.7996,2.8059,2.7953,2.828,2.8289,2.8296,2.8355,2.8371,2.8384,0,0,0,0,0,2.7452,2.7557,2.7546,2.757,2.7697,2.7797,2.7813,2.7822,2.7781,2.7832,2.7861,2.7841,2.8039,2.7986,2.801,2.8077,2.8276,2.8286,2.8296,2.8349,2.8368,2.8383,0,0,0,0,0,0,2.7504,2.7565,2.7553,2.7681,2.7734,2.779,2.7855,2.7842,2.7908,2.79,2.791,2.7925,2.804,2.807,2.801,2.8208,2.8152,2.8167,2.8184,2.8202,2.8216,2.8205,2.796,0,0,0,0,0,2.7529,2.7605,2.7655,2.7763,2.779,2.7818,2.7862,2.7864,2.792,2.7942,2.7979,2.8034,2.8108,2.8157,2.8228,2.836,2.8373,2.8418,2.8432,2.8444,2.8456,2.8525,2.8545,2.8332,2.8332,2.8332,0,0,2.7584,2.7627,2.7675,2.7774,2.7815,2.7892,2.7837,2.7922,2.7979,2.7955,2.8063,2.8092,2.8154,2.8276,2.8332,2.8305,2.8518,2.8456,2.8465,2.8471,2.8537,2.8557,2.8575,2.8339,2.8337,2.8336,0,0,2.7723,2.7764,2.7857,2.7899,2.7961,2.7979,2.8001,2.806,2.8078,2.8186,2.8169,2.8237,2.8366,2.8409,2.8449,2.8602,2.8584,2.8625,2.8698,2.8766,2.8783,2.8797,2.885,2.8868,2.8637,2.8638,2.8638,0,2.7783,2.7899,2.7906,2.7992,2.8035,2.8016,2.8109,2.815,2.8233,2.8263,2.8232,2.839,2.8431,2.8561,2.8598,2.8632,2.8656,2.8617,2.8779,2.8794,2.8808,2.8858,2.8878,2.8642,2.8641,2.8641,2.864,0,2.7968,2.8049,2.8116,2.8195,2.8246,2.8336,2.8356,2.8407,2.8405,2.8426,2.8535,2.8583,2.8662,2.8694,2.8693,2.8824,2.8805,2.8777,2.872,2.8833,2.888,2.8899,2.8648,2.8646,2.8645,2.8644,0,0,2.8143,2.8223,2.8248,2.8282,2.8348,2.8411,2.8499,2.8575,2.8617,2.8675,2.8748,2.8856,2.8829,2.8874,2.8878,2.8938,2.9052,2.8902,2.8903,2.8926,2.9196,2.9215,2.9237,2.9042,2.9046,2.9049,2.919,0,2.8285,2.8439,2.8447,2.8586,2.8659,2.8641,2.8717,2.8766,2.8788,2.8853,2.8878,2.8953,2.8914,2.894,2.8998,2.9026,2.9106,2.9016,2.9109,2.9112,2.9091,2.9262,2.9283,2.9415,2.9209,2.9212,2.9214,0,2.8472,2.8533,2.8679,2.8733,2.8764,2.8832,2.8901,2.8964,2.9019,2.903,2.9079,2.9074,2.9163,2.9104,2.9226,2.9165,2.9203,2.9223,2.9228,2.9235,2.9168,2.9272,2.9457,2.9476,2.9244,2.9241,2.9239,0,2.8581,2.8701,2.8802,2.8833,2.8899,2.8947,2.8977,2.9027,2.9072,2.9133,2.9161,2.9232,2.9271,2.9326,2.934,2.9296,2.9461,2.9404,2.9472,2.9471,2.9506,2.9503,2.9697,2.9535,2.9534,2.9534,2.9534,0,2.8738,2.8827,2.8852,2.8914,2.9013,2.9022,2.912,2.9147,2.9192,2.9259,2.9249,2.9312,2.9328,2.9394,2.9406,2.9503,2.9522,2.9533,2.9534,2.9533,2.9531,2.9556,2.9547,2.9539,2.9538,2.9537,2.9536,0,2.8876,2.8896,2.9006,2.9059,2.9074,2.9144,2.919,2.9249,2.9269,2.9354,2.9374,2.9406,2.9483,2.9503,2.9596,2.9603,2.9718,2.9712,2.9699,2.9698,2.9764,2.9756,2.9979,3.0008,2.9829,2.983,2.9832,0,2.8973,2.9041,2.9101,2.9144,2.9176,2.9247,2.9291,2.9303,2.935,2.9416,2.9467,2.9543,2.9603,2.9727,2.9758,2.9828,2.9823,2.9896,2.9833,2.9828,2.9821,2.9816,2.9821,2.9907,2.9909,2.9911,2.9912,0,2.9144,2.915,2.9214,2.9282,2.9335,2.9389,2.9441,2.9477,2.9496,2.9549,2.9627,2.9674,2.9767,2.9841,2.9912,2.9942,2.993,2.9932,2.9951,2.9948,2.9937,2.9941,2.9729,2.9926,2.9925,2.9924,2.9923,2.9922,2.9263,2.9321,2.9371,2.9443,2.9483,2.9531,2.9589,2.9615,2.968,2.9756,2.9759,2.9843,2.9894,2.9987,3.0021,3.0087,3.0065,3.0093,3.01,3.0106,3.011,2.9928,3.01,3.01,3.0099,3.0099,3.0099,0,2.943,2.9461,2.9527,2.9598,2.9654,2.9638,2.9693,2.9741,2.9815,2.9863,2.9923,3.0011,3.0083,3.0119,3.019,3.0235,3.0231,3.0253,3.0249,3.0256,3.0127,3.0103,3.0255,3.0255,3.0255,3.0255,3.0255,3.0255,2.9524,2.9621,2.9633,2.9749,2.9779,2.986,2.9893,2.9937,2.9976,3.0074,3.0133,3.0156,3.0199,3.0273,3.0337,3.0346,3.0372,3.0396,3.0402,3.0281,3.0265,3.025,3.0226,3.0402,3.0402,3.0524,3.0525,3.0526]},{"header":{"parameterUnit":"m.s-1","parameterCategory":1,"la1":30.2991,"la2":30.254,"lo1":-89.0895,"lo2":-89.0444,"dy":0.0017,"dx":0.0017,"nx":28,"ny":28,"refTime":"2024-08-11T03:00:00:Z","depth":0,"parameterNumber":3,"parameterNumberName":"V-component_of_WINDS"},"data":[0,0,0,0,0,0,0,0,0,0,0,0,0,0,0,0,0,0,0,0,0,0,0,0,0,0,0,0,0,0,0,0,0,0,0,0,0,0,0,0,0,0,0,0,0,0,0,0,0,0,0,0,0,0,0,0,0,0,2.9763,2.9763,0,2.9761,2.976,2.976,2.9679,2.9677,2.9675,2.9673,2.967,2.9672,2.9673,0,0,0,0,0,0,0,0,0,0,0,0,0,2.9696,2.9698,2.9763,2.9763,2.9763,2.9761,2.976,2.976,2.968,2.9677,2.9675,2.9672,2.9669,2.9671,2.9674,0,0,0,0,0,0,0,0,0,0,0,0,0,2.9713,2.9698,2.9763,2.9722,2.9719,2.9761,2.976,2.976,2.968,2.9677,2.9674,2.9671,2.9668,2.9671,2.9674,2.9754,0,0,2.9682,2.9684,0,0,0,0,0,0,0,0,2.9712,2.9715,2.9728,2.9725,2.9721,2.9717,2.9736,2.9758,2.9681,2.9695,2.9673,2.9669,2.9688,2.9689,2.9695,2.9754,2.9754,2.9683,2.9684,2.9686,2.9686,0,0,0,0,0,0,0,2.9711,2.9715,2.9762,2.9729,2.9724,2.9704,2.9703,2.974,2.9709,2.9693,2.9687,2.9688,2.9685,2.9693,2.9695,2.9754,2.9683,2.9685,2.9687,2.9688,2.9877,2.988,0,0,0,0,0,0,2.9715,2.9714,2.9762,2.9762,2.9709,2.9707,2.9706,2.9722,2.9708,2.9703,2.9691,2.9685,2.969,2.9692,2.9694,2.9787,2.9686,2.9688,2.969,2.9874,2.9878,2.9881,0,0,0,0,0,0,2.9714,2.9721,2.9762,2.9737,2.974,2.9712,2.973,2.9723,2.973,2.9707,2.9701,2.9704,2.9687,2.969,2.974,2.9785,2.969,2.9692,2.987,2.9875,2.988,2.9973,0,0,0,0,0,0,2.9713,2.9721,2.9751,2.9738,2.9742,2.9808,2.9733,2.9725,2.9736,2.9727,2.9718,2.9713,2.9685,2.9736,2.9743,2.9787,2.9694,2.9866,2.9872,2.9878,2.9965,2.998,2.9993,0,0,0,0,0,2.9711,2.9778,2.9753,2.9759,2.978,2.9811,2.9813,2.978,2.974,2.977,2.9754,2.9713,2.9779,2.9742,2.9748,2.9795,2.9862,2.987,2.9877,2.9959,2.9977,2.9993,0,0,0,0,0,0,2.9797,2.9775,2.9748,2.9813,2.9815,2.9797,2.9835,2.9801,2.9814,2.9805,2.9763,2.9761,2.9817,2.9811,2.9769,2.9871,2.9814,2.9823,2.9873,2.989,2.9904,2.9904,2.9697,0,0,0,0,0,2.9824,2.9852,2.9831,2.989,2.9892,2.9864,2.9876,2.985,2.985,2.985,2.9838,2.984,2.986,2.9875,2.9893,2.9964,2.996,2.9999,3.0013,3.0024,3.0033,3.0069,3.0086,2.9906,2.9906,2.9906,0,0,2.9879,2.9871,2.9891,2.9907,2.9905,2.9934,2.9865,2.9898,2.9919,2.9855,2.9901,2.9892,2.9891,2.9951,2.9977,2.9948,3.0082,3.0034,3.0043,3.0045,3.0078,3.0095,3.0111,2.9911,2.991,2.9909,0,0,2.9994,2.9991,3.0039,3.0039,3.0037,3.0018,3.003,3.0018,3.0009,3.0055,3.0007,3.0031,3.0068,3.0069,3.0074,3.0189,3.0151,3.0196,3.0268,3.0303,3.0318,3.033,3.037,3.0385,3.0204,3.0204,3.0205,0,3.0063,3.0105,3.0069,3.0105,3.0114,3.0057,3.0105,3.0106,3.0111,3.0117,3.0084,3.0129,3.0124,3.0184,3.0212,3.0218,3.0229,3.0197,3.0319,3.0331,3.0341,3.0379,3.0395,3.021,3.0209,3.0209,3.0208,0,3.019,3.022,3.0259,3.0264,3.0277,3.0319,3.0288,3.0305,3.0278,3.0262,3.0308,3.03,3.0315,3.0328,3.0302,3.0383,3.0365,3.0326,3.0267,3.0365,3.04,3.0414,3.0218,3.0216,3.0214,3.0213,0,0,3.036,3.0344,3.0359,3.036,3.0353,3.0376,3.0415,3.043,3.0445,3.045,3.0481,3.0514,3.0477,3.0483,3.0457,3.0488,3.0579,3.0445,3.0445,3.047,3.0667,3.0696,3.0714,3.0554,3.0557,3.0559,3.0667,0,3.047,3.0537,3.0505,3.0575,3.0601,3.0548,3.0582,3.0581,3.0567,3.0587,3.0571,3.0595,3.0546,3.0549,3.0578,3.0562,3.0618,3.0554,3.0582,3.0584,3.0584,3.0732,3.0763,3.0866,3.0681,3.0683,3.0685,0,3.0609,3.0619,3.0692,3.068,3.069,3.0721,3.0731,3.0752,3.075,3.0737,3.0744,3.0709,3.0747,3.0689,3.0739,3.0696,3.0706,3.07,3.0703,3.0704,3.064,3.0737,3.0898,3.0913,3.0706,3.0704,3.0703,0,3.0724,3.0756,3.0804,3.0807,3.0794,3.0817,3.0813,3.0808,3.0818,3.0827,3.0834,3.0847,3.0855,3.0866,3.0836,3.0796,3.089,3.083,3.088,3.0881,3.0902,3.0901,3.1066,3.091,3.0909,3.0909,3.0909,0,3.0851,3.0898,3.0855,3.0885,3.0935,3.0897,3.0948,3.0938,3.0934,3.0959,3.0914,3.0939,3.0899,3.092,3.0897,3.0941,3.0945,3.0936,3.0929,3.094,3.0941,3.0945,3.0937,3.0913,3.0912,3.0911,3.0911,0,3.0989,3.0962,3.101,3.0994,3.0991,3.1029,3.1015,3.1041,3.1023,3.1057,3.1062,3.1035,3.1057,3.1029,3.1049,3.1033,3.1094,3.1077,3.1095,3.109,3.1141,3.1137,3.1315,3.1336,3.1167,3.1168,3.117,0,3.1071,3.1105,3.1093,3.1107,3.1105,3.1128,3.1139,3.1103,3.1115,3.1116,3.1142,3.116,3.1173,3.1211,3.1193,3.1208,3.119,3.1252,3.1192,3.1202,3.119,3.1189,3.1191,3.1264,3.1266,3.1267,3.1269,0,3.122,3.1205,3.1221,3.1234,3.1248,3.1256,3.126,3.1274,3.1236,3.1253,3.1275,3.1285,3.1305,3.1324,3.1334,3.1329,3.1293,3.1288,3.13,3.1311,3.132,3.1315,3.1127,3.1284,3.1282,3.1281,3.128,3.128,3.1331,3.1359,3.1354,3.1374,3.1374,3.1379,3.1402,3.1388,3.1406,3.1419,3.1397,3.1425,3.1421,3.1431,3.143,3.1451,3.1424,3.1443,3.1447,3.1452,3.1459,3.1317,3.1453,3.1452,3.1452,3.1451,3.1451,0,3.1477,3.1471,3.149,3.1497,3.1513,3.1478,3.1481,3.1496,3.1521,3.1521,3.1534,3.156,3.1578,3.1561,3.1576,3.1596,3.158,3.1601,3.1599,3.1598,3.1483,3.147,3.1614,3.1614,3.1614,3.1614,3.1614,3.1614,3.1554,3.1599,3.1584,3.1627,3.1621,3.1648,3.1653,3.1657,3.1657,3.1687,3.1702,3.169,3.1683,3.1697,3.1712,3.1706,3.1714,3.1741,3.173,3.1622,3.1606,3.1591,3.1579,3.1743,3.1743,3.1843,3.1844,3.1844]}]]